Location: Newark
(21.1200°N, 73.4000°E)
Time: 09:03:11
(UTC+00:00)

Vanguard 1 Rocket - Pass Details

Date: 24 January 2021
Orbit: 654 x 4223 km, 34.3° (Epoch: 07 March)

Event Time Altitude Azimuth Distance (km) Brightness Sun altitude
Rises 00:18:35 0° 197° (SSW) 7,825 12.1 -20.2°
Reaches altitude 10° 00:32:37 10° 162° (SSE) 5,607 11.8 -17.1°
Maximum altitude 00:34:35 10° 155° (SSE) 5,373 11.8 -16.6°
Drops below altitude 10° 00:36:25 10° 148° (SSE) 5,192 11.9 -16.2°
Sets 00:45:18 0° 111° (ESE) 5,100 13.2 -14.2°
